This demonstration page uses our WeatherBlox Daily Observations layout. Learn more.

38.89511, -77.03637

Hourly Observations for June 25, 2020

Temp ( °F °C ) Dew Point ( °F °C ) Humidity (%) Winds ( mph kmh ) Pressure ( in mb ) Visibility ( mi km ) Precip ( " mm )
12:52 am 00:52 Cloudy 76 24.4 60 15.6 58 58 WSW 8 13 29.9 1013 10 16.0934 0 0
1:52 am 01:52 Mostly Cloudy 76 24.4 60 15.6 58 58 W 3 6 29.91 1013 10 16.0934 0 0
2:52 am 02:52 Mostly Cloudy 76 24.4 61 16.1 60 60 N 3 6 29.92 1013 10 16.0934 0 0
3:52 am 03:52 Mostly Cloudy 74 23.3 62 16.7 67 67 NNW 3 6 29.91 1013 10 16.0934 0 0
4:52 am 04:52 Mostly Cloudy 72 22.2 63 17.2 73 73 SSW 3 6 29.93 1014 10 16.0934 0 0
5:52 am 05:52 Mostly Cloudy 73 22.8 63 17.2 71 71 Calm 29.95 1014 10 16.0934 0 0
6:52 am 06:52 Mostly Cloudy 73 22.8 63 17.2 71 71 Calm 29.96 1015 10 16.0934 0 0
7:52 am 07:52 Mostly Cloudy 75 23.9 66 18.9 74 74 Calm 29.98 1015 10 16.0934 0 0
8:52 am 08:52 Mostly Cloudy 79 26.1 65 18.3 62 62 Calm 29.98 1015 10 16.0934 0 0
9:52 am 09:52 Mostly Cloudy 83 28.3 60 15.6 46 46 NE 6 9 29.99 1016 10 16.0934 0 0
10:52 am 10:52 Partly Cloudy 84 28.9 59 15 43 43 ENE 5 7 30 1016 10 16.0934 0 0
11:52 am 11:52 Partly Cloudy 85 29.4 58 14.4 40 40 E 7 11 29.99 1016 10 16.0934 0 0
12:52 pm 12:52 Partly Cloudy 85 29.4 61 16.1 45 45 ESE 6 9 29.99 1016 10 16.0934 0 0
1:52 pm 13:52 Mostly Cloudy 83 28.3 63 17.2 51 51 SE 7 11 29.98 1015 10 16.0934 0 0
2:52 pm 14:52 Cloudy 83 28.3 64 17.8 53 53 SSE 9 15 29.96 1015 10 16.0934 0 0
3:52 pm 15:52 Mostly Cloudy 82 27.8 66 18.9 58 58 S 9 15 29.96 1015 10 16.0934 0 0
4:52 pm 16:52 Partly Cloudy 81 27.2 68 20 65 65 S 10 17 29.95 1014 10 16.0934 0 0
5:52 pm 17:52 Partly Cloudy 81 27.2 66 18.9 61 61 S 6 9 29.94 1014 10 16.0934 0 0
6:44 pm 18:44 Partly Cloudy with Nearby Thunderstorms 81 27.2 67 19.4 62 62 SSW 5 7 29.95 1014 10 16.0934 0 0
6:52 pm 18:52 Partly Cloudy with Nearby Thunderstorms 79 26.1 66 18.9 65 65 undefined N/A 29.96 1015 10 16.0934 0 0
7:25 pm 19:25 Partly Cloudy 74 23.3 63 17.2 69 69 Calm 29.97 1015 10 16.0934 0.001 0.001
7:52 pm 19:52 Mostly Cloudy 74 23.3 61 16.1 64 64 N 5 7 29.97 1015 10 16.0934 0.001 0.001
8:04 pm 20:04 Mostly Cloudy with Nearby Thunderstorms 73 22.8 61 16.1 66 66 N 8 13 29.96 1014 10 16.0934 0 0
8:32 pm 20:32 Mostly Cloudy 73 22.8 62 16.7 69 69 E 7 11 29.98 1015 10 16.0934 0 0
8:52 pm 20:52 Mostly Cloudy 73 22.8 62 16.7 69 69 SSE 8 13 29.99 1016 10 16.0934 0 0
9:52 pm 21:52 Partly Cloudy 72 22.2 63 17.2 73 73 S 5 7 29.99 1016 10 16.0934 0 0
10:52 pm 22:52 Mostly Clear 72 22.2 62 16.7 71 71 SW 6 9 30 1016 10 16.0934 0 0
11:52 pm 23:52 Mostly Clear 71 21.7 64 17.8 79 79 NNW 20 31 30.02 1017 10 16.0934 0 0

Powered by AerisWeather